Location: Ostrava
(49.8330°N, 18.2830°E)
Time: 05:52:43
(UTC+02:00)

Explorer 7 - Visible Passes

Search period start: 23 July 2014 00:00
Search period end: 02 August 2014 00:00
Orbit: 492 x 707 km, 50.3° (Epoch: 22 July)

Date Brightness Start Highest point End Pass type
(mag) Time Alt. Az. Time Alt. Az. Time Alt. Az.
23 Jul 9.6 22:40:24 10° WSW 22:41:29 11° SW 22:42:34 10° SW visible
25 Jul 9.3 21:18:47 10° W 21:22:04 18° SW 21:25:24 10° S visible
26 Jul 9.7 21:30:56 10° WSW 21:32:15 11° SW 21:33:34 10° SSW visible
